Temperature
8 8 8 8 8 8 7 7 7 7 7 7 6 6 6 6 6 5 5 5 5 5 5 4 4 4 4 4 4 4 3 3 2 2 3 3 2 2 2 2 2 2 2
8 8 8 7 7 7 7 7 7 7 6 6 6 6 6 6 5 5 5 5 5 4 4 4 4 4 4 3 3 3 3 2 2 2 2 2 2 2 1 1 1 1 1
7 7 7 7 7 7 7 7 6 6 6 6 6 5 5 5 5 5 5 4 4 4 4 4 4 3 3 3 3 3 2 2 2 1 1 1 1 1 1 1 0 0 0
7 7 7 7 7 6 6 6 6 6 6 5 5 5 5 5 5 4 4 4 4 4 4 3 3 3 3 3 2 2 2 2 1 1 1 1 0 0 -0 -0 -0 -0 -0
7 7 7 7 6 6 6 6 6 5 5 5 5 5 5 4 4 4 4 4 3 3 3 3 3 3 2 2 2 2 2 1 1 0 0 -0 -0 -1 -1 -1 -1 -1 -1
7 6 6 6 6 6 6 5 5 5 5 5 5 5 4 4 4 4 3 3 3 3 3 3 2 2 2 2 2 1 1 1 0 -0 -0 -1 -1 -1 -1 -2 -2 -2 -2
6 6 6 6 6 5 5 5 5 5 4 4 4 4 4 4 4 3 3 3 3 2 2 2 2 2 2 2 1 1 1 1 -0 -1 -1 -1 -1 -2 -2 -2 -2 -3 -3
5 5 5 5 5 5 5 5 5 4 4 4 4 4 3 3 3 3 3 2 2 2 2 2 2 2 1 1 1 1 0 0 -0 -1 -1 -1 -2 -2 -2 -3 -3 -3 -3
5 5 5 5 5 5 4 4 4 4 3 3 3 3 3 3 3 2 2 2 2 2 2 2 1 1 1 1 0 -0 -0 -0 -1 -1 -1 -2 -2 -2 -3 -3 -3 -4 -4
5 5 4 4 4 4 4 3 3 3 3 3 3 3 2 2 2 2 2 2 2 1 1 1 1 1 0 0 -0 -1 -1 -1 -1 -2 -2 -2 -2 -2 -3 -3 -4 -4 -5
4 4 4 3 3 3 3 3 3 2 2 2 2 2 2 2 2 2 1 1 1 1 1 1 0 0 -0 -1 -1 -1 -2 -2 -2 -2 -3 -3 -3 -3 -3 -4 -4 -5 -5
3 3 3 3 3 2 2 2 2 2 2 2 1 2 1 1 1 1 1 1 1 0 0 0 -0 -0 -1 -1 -1 -2 -2 -2 -3 -3 -3 -3 -3 -4 -4 -4 -4 -5 -5
3 3 3 2 2 2 2 1 1 1 1 1 1 1 1 1 1 1 1 0 0 -0 -0 -0 -1 -1 -1 -2 -2 -2 -2 -3 -3 -4 -4 -4 -4 -4 -4 -5 -5 -5 -5
2 2 2 2 1 1 1 1 1 1 1 1 0 0 0 0 0 0 0 -0 -0 -1 -1 -1 -1 -2 -2 -2 -3 -3 -3 -3 -4 -4 -4 -4 -4 -5 -5 -5 -5 -6 -6
1 1 1 1 1 1 0 0 0 0 0 -0 -0 -0 -0 -0 -0 -0 -0 -1 -1 -1 -1 -2 -2 -3 -3 -3 -3 -3 -4 -4 -4 -5 -5 -5 -5 -5 -5 -6 -6 -6 -6
1 1 0 0 0 -0 -0 -0 -0 -0 -0 -1 -1 -1 -1 -1 -1 -1 -1 -1 -2 -2 -2 -3 -3 -3 -3 -4 -4 -4 -4 -4 -5 -5 -5 -6 -6 -6 -6 -6 -6 -7 -7
0 0 0 -0 -0 -1 -1 -1 -1 -1 -1 -1 -1 -1 -1 -1 -1 -2 -2 -2 -2 -3 -3 -3 -3 -4 -4 -4 -4 -5 -5 -5 -5 -5 -6 -6 -6 -6 -6 -6 -7 -7 -7
-0 -0 -1 -1 -1 -1 -1 -2 -2 -2 -1 -1 -2 -2 -2 -2 -2 -2 -2 -3 -3 -3 -3 -4 -4 -4 -5 -5 -5 -5 -5 -6 -6 -6 -6 -6 -6 -7 -7 -7 -7 -7 -7
-1 -1 -1 -1 -2 -2 -2 -2 -2 -2 -2 -2 -2 -2 -2 -3 -3 -3 -3 -3 -4 -4 -4 -4 -5 -5 -5 -5 -6 -6 -6 -6 -6 -6 -6 -7 -7 -7 -7 -7 -7 -8 -8
-1 -2 -2 -2 -2 -2 -3 -3 -3 -3 -3 -3 -3 -3 -3 -3 -3 -4 -4 -4 -4 -4 -5 -5 -5 -5 -6 -6 -6 -6 -6 -7 -7 -7 -7 -7 -7 -7 -8 -8 -8 -8 -8
-2 -2 -3 -3 -3 -3 -3 -3 -3 -4 -4 -4 -4 -4 -4 -4 -4 -4 -5 -5 -5 -5 -5 -6 -6 -6 -6 -6 -6 -7 -7 -7 -7 -7 -7 -7 -8 -8 -8 -8 -8 -8 -8
-3 -3 -3 -3 -3 -3 -4 -4 -4 -4 -4 -4 -4 -4 -4 -5 -5 -5 -5 -5 -6 -6 -6 -6 -6 -6 -6 -7 -7 -7 -7 -7 -7 -8 -8 -8 -8 -8 -8 -8 -8 -8 -9
-4 -4 -4 -4 -4 -4 -4 -4 -4 -5 -5 -5 -5 -5 -5 -5 -5 -6 -6 -6 -6 -6 -6 -6 -7 -7 -7 -7 -7 -7 -7 -7 -8 -8 -8 -8 -8 -8 -8 -8 -9 -9 -9
-4 -4 -4 -4 -4 -4 -5 -5 -5 -5 -5 -5 -6 -6 -6 -6 -6 -6 -6 -6 -7 -7 -7 -7 -7 -7 -7 -7 -7 -8 -8 -8 -8 -8 -8 -8 -8 -8 -9 -9 -9 -9 -9
-5 -5 -5 -5 -5 -5 -5 -5 -5 -6 -6 -6 -6 -6 -6 -6 -7 -7 -7 -7 -7 -7 -7 -7 -7 -7 -7 -7 -8 -8 -8 -8 -8 -8 -8 -8 -9 -9 -9 -9 -9 -9 -9
-5 -5 -5 -5 -5 -6 -6 -6 -6 -6 -6 -6 -6 -7 -7 -7 -7 -7 -7 -7 -7 -7 -8 -8 -8 -8 -8 -8 -8 -8 -8 -8 -8 -8 -8 -9 -9 -9 -9 -9 -9 -9 -9
Wind_Speed
6 7 7 7 7 7 6 7 7 7 7 7 7 7 7 6 6 6 5 6 5 5 5 5 5 4 4 4 4 4 5 5 7 6 5 5 7 7 7 8 9 10 10
6 6 7 7 7 7 7 7 7 7 7 7 7 7 7 6 7 7 7 6 6 6 6 5 5 4 5 4 4 5 5 5 6 8 6 6 7 7 8 8 8 9 10
5 6 7 8 8 8 7 7 7 7 7 7 7 7 7 7 7 6 6 6 6 6 6 6 6 6 6 5 5 5 5 5 6 7 7 6 6 6 8 8 9 8 10
5 6 7 8 8 8 7 7 7 7 7 7 7 7 7 7 6 6 6 6 6 6 6 6 6 6 6 6 5 6 5 6 6 6 7 7 7 7 7 7 8 7 8
5 6 6 6 6 6 7 7 7 7 7 7 7 7 6 6 6 7 7 6 6 6 6 6 6 6 7 6 5 6 6 6 6 6 7 7 7 7 7 7 8 9 9
4 5 4 5 5 6 7 7 7 7 7 7 7 7 7 6 7 9 7 6 6 7 7 6 6 7 8 9 9 9 9 8 8 8 8 9 9 9 8 7 8 9 9
4 4 4 5 6 6 6 7 7 7 7 7 7 7 7 7 9 10 10 7 7 7 7 6 5 6 7 7 9 11 11 12 12 10 11 11 11 9 9 10 9 10 11
3 4 4 5 5 5 6 7 7 6 6 6 6 7 7 7 9 10 10 9 7 7 7 8 7 7 7 7 8 8 9 10 11 10 11 11 11 10 10 10 11 11 11
3 3 4 4 5 6 6 6 6 6 6 6 6 7 7 7 9 10 10 7 7 8 8 8 8 8 8 9 8 9 10 9 10 12 14 14 14 14 12 8 8 8 10
3 3 3 4 5 6 6 5 5 5 5 5 6 7 7 7 8 10 11 7 7 7 7 8 10 10 9 9 9 9 10 9 8 8 10 11 11 11 12 9 8 8 9
3 3 3 4 4 4 4 4 4 5 5 5 6 6 7 8 8 10 11 8 7 7 6 6 6 9 10 11 10 9 10 9 8 8 8 8 8 7 7 8 8 8 9
3 3 4 4 3 3 4 4 5 5 5 5 6 6 5 6 7 9 12 12 9 8 7 6 6 9 10 11 10 10 11 10 7 7 7 7 7 7 7 7 9 10 11
3 3 3 3 3 4 4 5 4 5 5 5 5 5 5 5 5 9 11 12 11 8 7 7 8 9 10 9 10 11 9 7 6 7 8 8 7 7 7 6 8 9 10
3 3 3 3 3 3 3 4 4 5 5 5 5 5 5 5 5 5 5 6 8 7 6 6 8 9 8 8 8 8 7 7 7 7 8 7 6 6 6 6 7 7 7
3 3 3 3 3 3 3 4 5 5 5 5 5 5 5 6 6 6 6 5 5 6 5 4 5 5 6 6 6 6 6 6 7 6 7 7 7 7 7 6 6 7 8
3 3 3 3 2 2 2 3 4 6 6 8 8 7 6 8 8 8 9 9 8 8 6 6 6 6 6 6 6 6 6 6 6 6 6 7 7 7 7 7 7 8 8
3 3 2 2 2 2 3 3 3 3 5 8 9 9 9 9 9 9 9 9 9 8 7 6 6 6 6 6 7 7 7 6 6 6 7 7 7 7 7 7 7 7 8
3 3 3 2 2 3 3 3 3 3 4 3 4 6 7 8 8 8 7 6 6 7 6 6 7 6 6 7 7 7 7 6 6 6 7 7 7 7 8 8 7 8 8
2 2 2 2 2 2 2 3 3 4 4 4 3 3 4 5 6 6 6 5 5 6 6 6 6 6 6 7 7 6 7 6 7 6 7 7 7 7 7 7 7 9 9
2 2 2 2 2 2 2 3 3 4 4 4 4 4 3 3 3 4 4 4 5 5 6 6 6 6 6 6 6 6 6 6 7 7 7 7 7 7 8 8 7 7 7
1 2 2 2 2 3 3 3 3 4 4 4 4 4 5 4 5 5 5 5 5 6 6 6 6 6 6 6 6 7 7 7 7 7 7 6 6 6 7 7 7 7 7
2 2 2 2 2 2 3 3 3 3 4 5 4 4 6 5 5 5 5 5 5 5 5 5 6 6 6 6 6 6 7 7 7 7 7 6 6 6 6 6 6 6 6
2 2 2 2 2 3 3 3 3 4 4 4 4 4 4 4 5 5 5 5 5 5 5 5 5 6 5 6 6 6 7 7 7 7 7 6 6 6 6 6 7 7 7
3 3 3 3 3 3 3 4 4 4 4 4 5 5 5 5 5 5 5 5 5 5 5 5 6 7 8 7 7 7 8 8 8 7 8 7 7 6 6 6 7 7 7
3 3 3 4 4 4 4 4 4 4 4 5 5 5 5 5 5 5 5 5 5 6 6 6 6 6 7 8 8 8 10 11 10 8 7 7 7 7 7 7 6 7 7
4 4 4 4 4 4 4 5 5 5 5 5 5 5 5 5 5 5 5 5 5 5 6 6 7 8 8 8 9 10 10 11 10 10 8 6 6 6 6 6 7 6 7
Wind_Direction
194 194 192 192 189 187 189 188 185 181 178 178 181 181 180 180 182 185 191 188 193 197 198 207 214 217 218 220 222 231 235 241 256 271 271 270 272 275 279 281 282 282 282
192 191 193 191 188 190 192 189 186 185 184 183 183 183 186 187 189 192 195 194 200 205 206 210 218 217 225 230 228 236 241 241 252 267 274 274 275 277 281 283 283 281 281
192 193 193 193 192 194 194 189 187 187 185 185 186 187 189 190 193 197 198 200 206 212 214 218 222 222 229 231 235 241 246 247 250 259 270 276 279 278 284 283 282 283 284
194 196 199 200 197 195 191 187 187 188 187 188 190 192 193 193 195 198 200 206 211 216 221 225 228 227 233 235 238 241 246 248 251 256 265 273 278 281 280 285 289 287 288
199 202 207 206 198 192 189 186 187 189 193 192 192 194 195 197 199 198 201 208 214 219 222 227 230 230 237 239 242 244 245 248 253 257 263 270 272 276 279 286 287 293 290
209 209 205 201 197 194 193 189 188 191 193 194 197 197 199 203 197 203 207 211 217 223 226 229 230 228 232 238 244 249 250 249 252 258 263 264 270 273 278 279 284 289 292
213 210 204 201 201 200 194 193 193 194 196 199 202 203 208 208 203 208 212 220 223 227 229 231 232 231 233 241 244 248 252 253 254 258 263 264 271 274 277 277 275 278 283
216 214 207 203 204 200 199 202 200 197 200 204 206 209 215 216 210 215 215 224 231 232 232 234 237 237 232 239 247 252 255 256 254 254 261 267 271 273 271 275 281 284 284
223 221 214 205 202 201 204 206 204 202 205 208 211 214 220 221 213 218 218 226 232 236 236 236 236 240 236 236 247 254 259 263 260 259 266 271 273 272 272 272 273 276 283
242 234 222 214 209 209 211 210 209 207 211 211 218 222 225 229 219 219 219 226 233 237 237 236 234 238 241 237 246 254 260 266 271 272 269 269 268 266 262 258 262 267 278
253 235 221 217 217 215 215 214 210 208 213 221 227 231 233 235 228 223 221 224 230 236 239 240 237 232 242 244 250 256 261 272 274 273 273 272 270 267 263 260 259 259 265
241 227 222 218 212 212 214 217 213 210 218 228 234 239 240 237 233 228 225 228 233 237 242 244 242 236 247 252 255 260 267 271 270 268 269 270 269 268 268 266 265 263 263
239 233 225 216 218 216 215 216 215 215 221 229 234 241 244 239 234 232 234 234 234 238 245 245 249 249 254 256 255 261 263 261 260 263 266 271 274 274 275 274 271 266 267
230 230 226 218 220 223 223 218 218 219 223 227 233 241 245 241 235 227 227 230 229 237 244 243 246 250 250 255 258 256 252 253 257 263 270 275 279 277 271 270 272 273 274
231 226 224 222 220 225 231 232 232 235 236 236 239 240 243 246 240 230 231 233 232 238 246 251 252 251 249 251 254 255 254 254 258 262 266 271 273 274 273 269 267 270 269
228 226 224 223 225 229 239 262 254 249 254 252 253 253 252 253 254 245 245 249 249 242 245 247 251 254 255 258 261 261 260 258 258 261 264 267 270 272 273 270 266 266 268
240 236 234 230 230 233 235 243 266 269 250 251 253 252 249 253 256 254 251 252 248 239 244 248 253 255 257 259 260 260 263 262 261 261 263 266 269 270 270 269 267 265 267
251 243 239 237 237 240 243 248 252 260 270 271 260 256 255 256 259 255 250 251 246 240 245 249 252 254 258 261 261 261 263 264 261 261 263 264 265 266 265 264 263 265 269
254 248 247 247 244 245 249 254 254 252 257 267 272 271 260 262 263 256 247 246 248 251 253 255 256 258 260 261 261 261 261 263 264 264 262 263 262 261 262 263 265 266 268
260 249 259 254 252 253 249 247 250 251 254 258 260 263 264 259 256 256 250 251 254 258 259 260 261 261 262 261 260 260 262 264 264 262 262 262 262 259 260 262 264 267 268
281 258 254 261 259 256 254 252 252 254 257 261 262 260 257 261 262 264 263 260 257 259 262 265 265 265 262 260 258 259 261 263 263 263 263 262 260 261 261 262 264 265 269
290 283 285 282 280 275 273 266 261 259 261 264 269 269 265 261 261 263 264 265 263 263 264 265 267 265 262 259 259 260 261 262 262 261 261 260 258 258 260 261 262 265 267
297 296 295 291 288 285 284 274 266 263 265 266 267 266 265 262 263 265 267 270 271 271 269 264 266 268 266 263 261 258 259 261 261 259 260 259 257 257 259 260 261 267 267
293 288 286 286 284 279 278 278 275 273 272 272 270 268 268 268 268 268 271 274 274 272 269 267 265 264 265 267 267 262 260 262 261 256 254 254 256 258 258 258 261 264 265
289 284 284 284 282 281 281 280 279 278 277 276 276 275 274 273 273 275 276 275 276 274 272 271 268 266 265 266 267 266 265 265 264 258 251 251 252 253 255 257 259 264 264
289 287 285 284 280 279 279 279 279 278 277 277 276 276 276 275 275 276 275 273 274 276 275 272 267 268 272 271 268 266 267 268 267 263 255 254 252 251 252 256 258 259 264
Height
1477 1479 1480 1482 1484 1486 1488 1489 1491 1492 1494 1495 1497 1498 1499 1500 1501 1502 1503 1504 1505 1505 1506 1507 1507 1508 1508 1508 1508 1507 1508 1507 1506 1505 1505 1504 1503 1501 1500 1498 1497 1495 1493
1474 1476 1477 1479 1481 1483 1485 1487 1488 1489 1491 1492 1494 1494 1496 1497 1498 1499 1500 1500 1501 1502 1503 1503 1504 1504 1504 1504 1503 1503 1503 1503 1502 1500 1500 1499 1498 1496 1495 1493 1491 1489 1487
1472 1473 1474 1476 1478 1480 1482 1483 1485 1486 1487 1489 1490 1491 1492 1493 1494 1495 1496 1497 1498 1498 1499 1499 1499 1499 1499 1499 1499 1499 1499 1498 1498 1496 1495 1494 1492 1491 1489 1488 1486 1484 1482
1469 1470 1471 1473 1475 1476 1478 1480 1481 1483 1484 1485 1486 1487 1488 1489 1490 1491 1492 1493 1494 1494 1494 1495 1495 1495 1495 1495 1495 1494 1494 1494 1493 1491 1490 1488 1487 1486 1484 1482 1480 1478 1476
1466 1467 1469 1470 1471 1473 1475 1476 1477 1479 1480 1481 1482 1483 1484 1485 1486 1487 1488 1489 1489 1490 1490 1490 1490 1490 1490 1490 1490 1489 1489 1489 1488 1486 1484 1483 1482 1481 1479 1477 1475 1472 1469
1464 1465 1466 1467 1468 1469 1471 1472 1474 1475 1476 1477 1478 1479 1480 1481 1482 1483 1484 1484 1485 1485 1485 1485 1485 1485 1485 1485 1485 1484 1484 1483 1482 1481 1479 1478 1476 1475 1473 1472 1469 1466 1463
1462 1462 1463 1464 1465 1466 1467 1469 1470 1471 1472 1473 1474 1474 1475 1476 1477 1478 1479 1479 1480 1480 1480 1480 1480 1480 1480 1480 1479 1479 1478 1477 1477 1476 1474 1472 1471 1469 1468 1465 1463 1461 1458
1459 1460 1460 1461 1462 1463 1464 1465 1466 1467 1468 1469 1469 1470 1471 1472 1473 1474 1474 1474 1475 1475 1475 1475 1475 1474 1474 1474 1473 1472 1472 1471 1471 1469 1468 1466 1465 1463 1462 1460 1457 1454 1451
1456 1457 1457 1458 1458 1459 1460 1461 1462 1463 1463 1464 1465 1466 1466 1467 1468 1469 1469 1469 1469 1469 1469 1469 1469 1469 1468 1468 1467 1466 1465 1465 1464 1463 1461 1460 1458 1456 1455 1453 1450 1448 1445
1453 1454 1454 1454 1455 1455 1456 1457 1457 1458 1459 1460 1460 1461 1461 1462 1463 1464 1464 1464 1464 1464 1464 1464 1463 1463 1463 1462 1461 1460 1459 1458 1457 1455 1454 1452 1451 1449 1448 1447 1445 1443 1440
1451 1451 1451 1451 1451 1452 1452 1453 1453 1454 1454 1455 1455 1456 1456 1457 1457 1458 1458 1458 1458 1458 1458 1458 1457 1457 1456 1456 1455 1454 1453 1452 1451 1449 1447 1446 1444 1443 1441 1440 1439 1437 1434
1447 1447 1447 1447 1448 1448 1448 1448 1449 1449 1450 1450 1451 1451 1451 1451 1452 1452 1453 1453 1453 1452 1452 1452 1452 1451 1451 1450 1449 1448 1447 1446 1445 1443 1441 1439 1438 1436 1435 1434 1432 1430 1428
1444 1444 1444 1444 1444 1444 1444 1444 1445 1445 1445 1445 1446 1446 1446 1446 1446 1447 1447 1447 1447 1447 1446 1446 1445 1445 1444 1443 1443 1442 1441 1440 1438 1436 1435 1433 1432 1430 1429 1427 1425 1423 1421
1440 1440 1440 1440 1440 1440 1440 1440 1441 1441 1441 1441 1441 1441 1441 1441 1441 1441 1441 1441 1441 1441 1440 1440 1439 1438 1438 1437 1436 1435 1434 1433 1432 1430 1428 1427 1425 1424 1422 1421 1419 1417 1414
1437 1436 1436 1436 1436 1436 1436 1437 1437 1437 1437 1437 1437 1437 1436 1436 1436 1436 1436 1435 1435 1435 1434 1433 1433 1432 1432 1431 1430 1429 1428 1427 1426 1424 1422 1421 1419 1417 1416 1414 1413 1411 1408
1433 1433 1433 1432 1432 1432 1432 1432 1432 1432 1432 1432 1432 1432 1431 1431 1431 1431 1431 1430 1430 1430 1429 1428 1427 1426 1426 1425 1424 1423 1422 1421 1419 1418 1416 1415 1413 1411 1410 1408 1407 1405 1402
1430 1429 1429 1429 1429 1429 1428 1428 1428 1428 1428 1427 1427 1427 1426 1426 1426 1425 1425 1425 1424 1424 1423 1422 1421 1420 1419 1419 1418 1417 1415 1414 1413 1412 1410 1409 1407 1405 1404 1402 1401 1399 1397
1427 1426 1426 1426 1425 1425 1425 1425 1424 1423 1423 1422 1422 1422 1421 1421 1420 1420 1420 1419 1418 1418 1417 1416 1415 1414 1414 1413 1412 1411 1410 1408 1407 1406 1404 1403 1401 1400 1398 1396 1395 1393 1391
1424 1423 1423 1422 1422 1422 1421 1421 1420 1420 1419 1418 1417 1417 1416 1416 1415 1415 1414 1414 1413 1412 1411 1410 1409 1408 1408 1407 1406 1405 1404 1402 1401 1400 1398 1397 1395 1394 1392 1391 1389 1388 1386
1421 1420 1420 1419 1418 1418 1418 1417 1416 1415 1415 1414 1413 1412 1412 1411 1410 1409 1409 1408 1407 1406 1405 1404 1403 1403 1402 1401 1400 1399 1397 1396 1395 1394 1392 1391 1390 1388 1387 1385 1384 1383 1381
1418 1417 1417 1416 1416 1415 1414 1413 1412 1412 1411 1410 1409 1408 1407 1406 1405 1404 1403 1402 1402 1401 1400 1399 1398 1397 1396 1395 1394 1392 1391 1390 1389 1388 1387 1385 1384 1383 1382 1380 1379 1378 1376
1416 1415 1414 1414 1413 1412 1411 1410 1409 1408 1406 1405 1404 1404 1403 1401 1400 1399 1398 1398 1397 1396 1395 1394 1392 1392 1390 1389 1388 1387 1386 1384 1384 1383 1381 1380 1379 1378 1376 1375 1374 1373 1372
1414 1413 1412 1410 1409 1408 1407 1406 1405 1404 1403 1402 1400 1399 1398 1397 1396 1395 1394 1393 1392 1390 1389 1388 1387 1386 1385 1383 1382 1381 1380 1379 1378 1377 1376 1375 1374 1373 1372 1371 1370 1368 1367
1411 1410 1409 1407 1406 1405 1404 1403 1401 1400 1399 1398 1396 1395 1394 1392 1391 1390 1389 1388 1386 1385 1384 1383 1381 1380 1379 1378 1377 1376 1375 1374 1373 1372 1371 1370 1369 1368 1367 1366 1365 1364 1363
1408 1406 1405 1404 1403 1401 1400 1399 1398 1396 1395 1394 1392 1391 1389 1388 1386 1385 1384 1382 1381 1380 1378 1377 1376 1375 1374 1373 1372 1370 1369 1369 1368 1367 1366 1365 1364 1363 1363 1362 1361 1360 1359
1404 1403 1401 1400 1399 1397 1396 1395 1393 1392 1391 1389 1387 1386 1384 1383 1382 1380 1379 1377 1376 1374 1373 1372 1371 1370 1369 1367 1366 1365 1365 1364 1363 1362 1362 1361 1360 1359 1359 1358 1357 1356 1355